www.pogodaiklimat.ru

Погода и климат >> Архив погоды >> Индия >> Jaipur


ПОГОДА в Jaipur

  • Прогноз погоды в Jaipur
  • Монитор погоды в Jaipur
  • Климат города

АРХИВ ПОГОДЫ в Jaipur

Время (UTC), дата Ветер
(напр.,м/с)
 
Видим.   Явления Облачность Т
(С)
Тd
(С)
f
(%)
Тe
(С)
Тes
(С)
Комфортность P
(гПа)
Po
(гПа)
Тmin
(С)
Tmax
(С)
R
(мм)
R24
(мм)
S
(см)
00 11.11 штиль 0 2000 м мгла ясно +16.6 +6.4 51 +17 +17 1014.8 1015.0
03 11.11 штиль 0 1000 м мгла ясно +22.6 +9.7 44 +24 +27 комфорт 1016.1 1016.0 +15.1 +31.1
06 11.11 Ю 2 2000 м мгла ясно +28.0 +7.1 27 +27 +37 жарко 1015.8 1016.0
09 11.11 Ю 3 2000 м мгла ясно +31.0 +2.3 16 +28 +35 жарко 1013.4 1013.0
12 11.11 штиль 0 2000 м мгла ясно +29.2 +5.6 22 +28 +28 жарко 1012.5 1013.0 +32.1
15 11.11 штиль 0 2000 м дым ясно +21.4 +10.4 49 +23 +23 комфорт 1015.1 1015.0
18 11.11 штиль 0 2000 м дым ясно +20.4 +10.5 53 +22 +22 комфорт 1015.1 1015.0
21 11.11 штиль 0 2000 м дым ясно +19.4 +7.2 45 +20 +20 1014.5 1015.0
00 12.11 штиль 0 2000 м мгла ясно +18.4 +10.2 59 +19 +19 1015.4 1015.0
03 12.11 штиль 0 1000 м дым ясно +22.6 +8.8 41 +24 +26 комфорт 1017.0 1017.0 +16.7 +32.1
06 12.11 ЮЗ 3 2000 м мгла ясно +29.0 +9.3 29 +29 +38 жарко 1013.9 1014.0
09 12.11 З 3 4000 м мгла ясно +32.2 +8.1 22 +31 +37 жарко 1010.4 1010.0
12 12.11 штиль 0 2000 м мгла ясно +30.0 +5.2 21 +28 +28 жарко 1009.6 1010.0 +33.0
15 12.11 штиль 0 2000 м мгла ясно +25.4 +12.2 44 +27 +27 жарко 1011.3 1011.0
18 12.11 штиль 0 2000 м мгла ясно +21.4 +11.8 54 +23 +23 комфорт 1011.7 1012.0
21 12.11 штиль 0 2000 м мгла ясно +19.6 +9.0 50 +20 +20 1011.4 1011.0
00 13.11 штиль 0 2000 м мгла ясно +18.2 +10.4 60 +18 +18 1010.9 1011.0
03 13.11 штиль 0 1000 м дым ясно +24.0 +9.3 39 +25 +27 комфорт 1011.8 1012.0 +17.1 +33.0
06 13.11 З 2 2000 м мгла ясно +29.0 +9.3 29 +29 +38 жарко 1011.0 1011.0
09 13.11 З 2 2000 м мгла 6/6 1050 м
[Sc]
+32.4 +12.2 29 +33 +36 жарко 1007.4 1007.0
12 13.11 штиль 0 2000 м мгла 5/5 1050 м
[Sc Ac trans]
+30.0 +10.4 30 +30 +30 жарко 1007.1 1007.0 +32.8
15 13.11 штиль 0 2000 м мгла 4/4 1050 м
[Sc]
+23.8 +6.9 34 +24 +24 комфорт 1009.1 1009.0
18 13.11 штиль 0 2000 м мгла 4/4 1050 м
[Sc]
+24.0 +9.3 39 +25 +25 комфорт 1009.7 1010.0
21 13.11 В 3 2000 м мгла 4/4 1050 м
[Sc]
+22.2 +11.2 50 +24 +24 комфорт 1009.1 1009.0
00 14.11 В 3 2000 м мгла 5/5 1050 м
[Sc]
+20.0 +13.8 67 +22 +22 комфорт 1010.4 1010.0
03 14.11 В 4 2000 м мгла 3/0
[Ac trans]
+21.0 +14.5 66 +24 +25 комфорт 1012.5 1013.0 +18.9 +32.8
06 14.11 В 4 2000 м мгла ясно +26.0 +16.3 55 +29 +37 душно 1011.9 1012.0
09 14.11 нст 1 2000 м мгла 6/0
[Ac trans]
+29.0 +15.3 43 +32 +37 душно 1009.4 1009.0
12 14.11 нст 1 2000 м мгла 5/5 1050 м
[Sc]
+27.0 +13.5 43 +29 +29 жарко 1009.5 1010.0 +30.0
15 14.11 штиль 0 2000 м мгла 5/4 1050 м
[Sc Ac trans]
+25.0 +13.0 47 +27 +27 жарко 1011.4 1011.0
18 14.11 штиль 0 2000 м мгла 5/4 1050 м
[Sc Ac trans]
+22.4 +13.0 55 +25 +25 комфорт 1011.1 1011.0
21 14.11 штиль 0 2000 м мгла 5/4 1050 м
[Sc Ac trans]
+21.4 +13.0 59 +24 +24 комфорт 1012.0 1012.0
00 15.11 штиль 0 2000 м мгла 5/4 1050 м
[Sc Ac trans]
+21.0 +13.7 63 +23 +23 комфорт 1013.7 1014.0
03 15.11 штиль 0 1000 м дым 3/0
[Ac trans]
+22.6 +14.5 60 +26 +28 жарко 1014.9 1015.0 +18.2 +30.0
06 15.11 СЗ 3 1000 м дым ясно +26.8 +13.5 44 +29 +37 жарко 1015.1 1015.0
09 15.11 СЗ 3 2000 м мгла ясно +29.0 +7.7 26 +28 +35 жарко 1013.5 1014.0
12 15.11 С 3 2000 м мгла ясно +26.6 +9.2 33 +27 +27 жарко 1013.9 1014.0 +29.3
15 15.11 С 3 2000 м дым ясно +23.4 +10.4 44 +25 +25 комфорт 1015.4 1015.0
18 15.11 нст 1 2000 м дым ясно +20.2 +14.4 69 +24 +24 комфорт 1016.5 1017.0
21 15.11 нст 2 2000 м дым ясно +18.4 +14.2 77 +20 +20 1016.0 1016.0
00 16.11 Ю 1 1000 м дым ясно +15.8 +10.1 69 +17 +17 1016.2 1016.0
03 16.11 нст 2 500 м туман ясно +17.4 +15.0 86 +18 +20 1017.8 1018.0 +13.5 +29.3
06 16.11 З 3 1000 м дым ясно +23.6 +14.1 55 +26 +35 жарко 1016.4 1016.0
09 16.11 З 3 2000 м мгла ясно +27.6 +3.1 21 +26 +32 жарко 1013.0 1013.0
12 16.11 СЗ 2 2000 м мгла ясно +26.0 +3.4 23 +25 +25 комфорт 1012.2 1012.0 +28.4
15 16.11 нст 1 2000 м мгла ясно +21.2 +9.2 46 +22 +22 комфорт 1013.4 1013.0
18 16.11 В 1 2000 м мгла ясно +19.2 +9.4 53 +21 +21 комфорт 1014.3 1014.0
21 16.11 штиль 0 2000 м мгла ясно +16.4 +7.2 54 +16 +16 1014.4 1014.0
00 17.11 штиль 0 2000 м мгла ясно +14.6 +11.2 80 +14 +14 1014.0 1014.0
03 17.11 штиль 0 1000 м дым ясно +19.2 +9.4 53 1013.9 1013.7 +14.1 +28.4
06 17.11 З 3 1000 м дым 3/0
[Ci fib]
+26.2 +5.1 26 +25 +34 комфорт 1013.4 1013.0
09 17.11 З 2 2000 м мгла ясно +28.6 +2.3 18 +26 +34 жарко 1011.7 1012.0
12 17.11 штиль 0 2000 м мгла ясно +26.6 +10.7 37 +27 +28 жарко 1010.2 1010.0 +29.4
15 17.11 штиль 0 2000 м мгла ясно +21.8 +6.5 37 +23 +23 комфорт 1011.8 1012.0
18 17.11 штиль 0 2000 м мгла ясно +19.6 +7.0 44 +20 +20 1012.8 1013.0

 

Местоположение метеостанции Jaipur (Rajasthan, Индия): широта 26.82 долгота 75.80 высота над уровнем моря 390 м.

В архиве по умолчанию представлена погода в Jaipur за последнюю неделю. Архивные данные за месяц целиком и за предыдущие месяцы, начиная с января 2011 года, Вы можете получить, выбрав интересующий диапазон дат из раскрывающегося списка и нажав кнопку "Ввод!".


*Определитесь, кто Вы:
робот инопланетянин человек

Внимание! Время в таблицах - всемирное. Для получения местного времени необходимо прибавить поправку, которая в Jaipur равна 5.5 ч.

Смотрите также архив погоды в соседних городах и на ближайших метеорологических станциях:

Погода в Ajmer (Rajasthan, Индия) (124 км)
Погода в Sheopur (Madhya Pradesh, Индия) (155 км)
Погода в Pilani (Rajasthan, Индия) (169 км)
Погода в Churu (Rajasthan, Индия) (181 км)
Погода в Kota (Rajasthan, Индия) (186 км)
Погода в Bhilwara (Rajasthan, Индия) (201 км)
Погода в Agra (Uttar Pradesh, Индия) (218 км)
Погода в New Delhi Aya Nagar (Delhi, Индия) (226 км)
Погода в New Delhi Airport (Delhi, Индия) (234 км)
Погода в Rohtak (Haryana, Индия) (236 км)

Пояснения к столбцам:

Ветер - указаны скорость ветра в м/с - средняя за 10 мин, порывы в срок и между сроками (в фигурных скобках) и направление, откуда дует ветер: С - северный, СВ - северо-восточный, В - восточный, ЮВ - юго-восточный, Ю - южный, ЮЗ - юго-западный, З - западный, СЗ - северо-западный.
Видимость - горизонтальная дальность видимости в метрах или километрах. При видимости от 1 до 10 км при отсутствии осадков обычно наблюдается дымка, при ухудшении видимости до 1 км и менее - туман. В сухую погоду видимость может ухудшаться дымом, пылью или мглою.
Явления - указаны атмосферные явления, наблюдавшиеся в срок или в последний час перед сроком; фигурными скобками обозначены явления, наблюдавшиеся между сроками (за 1-3 часа до срока); квадратными скобками обозначены град или гололедные отложения с указанием их диаметра в мм.
Облачность - указаны через наклонную черту общая и нижняя облачность в баллах и высота нижней границы облаков в метрах; квадратными скобками обозначены формы облаков: Ci - перистые, Cs - перисто-слоистые, Cc - перисто-кучевые, Ac - высококучевые, As - высокослоистые, Sc - слоисто-кучевые, Ns - слоисто-дождевые, Cu - кучевые, Cb - кучево-дождевые. Подробнее классификацию облаков см. в Атласе облаков (PDF).
T - Температура воздуха - температура, измеренная на высоте 2 м над землей.
Td - Температура точки росы - температура, при понижении до которой содержащийся в воздухе водяной пар достигнет насыщения.
f - Относительная влажность воздуха - влажноcть воздуха, измеренная на высоте 2 м над землей.
Te - Эффективная температура - температура, которую ощущает одетый по сезону человек в тени. Характеристика душности погоды. При расчете учитывается влияние влажности воздуха и скорости ветра на теплоощущения человека.
Tes - Эффективная температура на солнце - температура, которую ощущает человек, с поправкой на солнечный нагрев. Характеристика знойности погоды. Зависит от высоты солнца над горизонтом, облачности и скорости ветра. Ночью, в пасмурную погоду, а также при ветре 12 м/с и более поправка равна нулю.
P - Атмосферное давление - приведенное к уровню моря атмосферное давление.
Po - Атмосферное давление - измеренное на уровне метеостанции атмосферное давление.
Tmin - Минимальная температура - минимум температуры воздуха на высоте 2 м над землей.
Tmax - Максимальная температура - максимум температуры воздуха на высоте 2 м над землей.
R - Количество осадков - Количество выпавших осадков за период времени, мм. При наведении курсора мыши на число - период времени, за который выпало указанное количество осадков.
R24 - Количество осадков - Количество выпавших осадков за 24 часа, мм.
S - Снежный покров - Высота снежного покрова, см. При наведении курсора мыши на число - состояние снежного покрова и степень покрытия местности в баллах.